Regional Weather Roundup
Issued by NWS Mobile, AL

Home | Current Version | Previous Version | Text Only | Print | Product List | Glossary On
Versions: 1 2 3 4 5 6 7 8 9 10 11 12 13 14 15 16 17 18 19 20 21 22 23 24 25 26 27 28 29 30 31 32 33 34 35 36 37 38 39 40 41 42 43 44 45 46 47 48 49 50
000
ASUS44 KMOB 250612
RWRMOB
REGIONAL WEATHER ROUNDUP
NATIONAL WEATHER SERVICE MOBILE AL
100 AM CDT SAT MAR 25 2017

NOTE: "FAIR" INDICATES FEW OR NO CLOUDS BELOW 12,000 FEET WITH NO
      SIGNIFICANT WEATHER AND/OR OBSTRUCTIONS TO VISIBILITY.

  * THESE STATIONS ARE PART OF THE UNIVERSITY OF SOUTH ALABAMA
    MESONET AND ARE NOT UNDER NWS OR FAA QUALITY CONTROL.

ALZ061>064-250700-
COASTAL ALABAMA

CITY           SKY/WX    TMP DP  RH WIND       PRES   REMARKS
MOBILE REG APT CLOUDY    67  61  81 SE12      30.15F
6HR MIN TEMP:  66; 6HR MAX TEMP:  70;

BROOKLEY FIELD CLOUDY    69  64  84 SE13      30.16F
6HR MIN TEMP:  68; 6HR MAX TEMP:  71;

USA CAMPUS*    NOT AVBL
DOG RIVER*       N/A     68  63  83 E10       30.94F


CITY           SKY/WX    TMP DP  RH WIND       PRES   REMARKS
GULF SHORES    CLOUDY    67  63  89 SE13      30.16F

$$

ALZ051>060-250700-
INTERIOR SOUTHWEST AND SOUTH CENTRAL ALABAMA

CITY           SKY/WX    TMP DP  RH WIND       PRES   REMARKS
GREENVILLE     CLOUDY    60  52  74 S6        30.18F
6HR MIN TEMP:  60; 6HR MAX TEMP:  73;

EVERGREEN      CLOUDY    58  54  86 SE6       30.18F
6HR MIN TEMP:  57; 6HR MAX TEMP:  70;

ATMORE*        NOT AVBL
ANDALUSIA/OPP  CLOUDY    62  53  72 SE3       30.19F
6HR MIN TEMP:  59; 6HR MAX TEMP:  73;

ANDALUSIA*       N/A     59  54  82 E5        30.18F
FLORALA APT    PTCLDY    55  51  86 CALM      30.22F
6HR MIN TEMP:  55; 6HR MAX TEMP:  69;

FLORALA*         N/A     57  54  88 NE2       30.97F

$$

FLZ001>006-250700-
WESTERN FLORIDA PANHANDLE

CITY           SKY/WX    TMP DP  RH WIND       PRES   REMARKS
PENSACOLA      PTCLDY    68  60  75 SE10      30.18F
6HR MIN TEMP:  66; 6HR MAX TEMP:  69;

NAS PENSACOLA  CLOUDY    67  61  81 SE8       30.17F
6HR MIN TEMP:  66; 6HR MAX TEMP:  68;

MILTON         LGT RAIN  60  58  92 SE7       30.19S
6HR MIN TEMP:  60; 6HR MAX TEMP:  66; 6HR PCP: TRACE;

WHTNG S FIELD  NOT AVBL


CITY           SKY/WX    TMP DP  RH WIND       PRES   REMARKS
JAY*             N/A     59  55  88 SE8       30.18F
DUKE FIELD     CLOUDY    62  55  76 SE6       30.18F
CRESTVIEW      CLOUDY    55  52  89 CALM      30.20F
6HR MIN TEMP:  55; 6HR MAX TEMP:  68;

VALPARAISO     PTCLDY    65  59  82 SE8       30.18F
6HR MIN TEMP:  64; 6HR MAX TEMP:  69;

DESTIN         PTCLDY    69  63  81 SE7       30.19F
6HR MIN TEMP:  68; 6HR MAX TEMP:  71;


$$

MSZ076-079-250700-
INTERIOR SOUTHEAST MISSISSIPPI

CITY           SKY/WX    TMP DP  RH WIND       PRES   REMARKS
LEAKESVILLE*   NOT AVBL
AGRICOLA*        N/A     64  63  94 S2        30.13F

$$

MARINE OBSERVATIONS

STATION/POSITION TIME  TEMP    WIND        PRES    WAVE
                       AIR SEA DIR/SP/G            HT/PER
                 (UTC) (F)     (DEG/KT/KT) (MB)    (FT/S)
PASCAGOULA       0548   69     130/ 17/ 23 1020.0F
PETIT BOIS ISLND 0548   68     130/ 15/ 21 1021.1F
GRAND BAY        0445   70     140/ 19     1022.0F
KATRINA CUT      0530          140/ 19     1020.6F
CEDAR POINT      0530   69     150/ 15     1021.0F
E DAUPHIN ISLAND 0500   69     130/ 18/ 20 1021.4F
MIDDLE BAY LIGHT 0530   69     140/ 20     1020.6F
USCG MOBILE BAY  0548   68 70  150/  7/ 12 1021.5F
STATE DOCKS      0548   67 65              1021.0F
MEAHER PARK      0530   65     120/  7     1021.7F
WEEKS BAY        0445   66                   N/A
FORT MORGAN      0548   69     140/ 20/ 22   N/A
12 S ORANGE BCH  0450   69 69  140/ 16/ 17 1021.8F   5/ 7
PENSACOLA BAY    0548   68 69  160/  5/  7 1022.3F
64 S DAUPHIN ISL 0550   71 73  130/ 21/ 25 1020.5F   7/ 8
67 S FORT MORGAN 0530   70     130/ 19     1021.3F

$$

SELECTED LOCATIONS ACROSS THE REGION

CITY           SKY/WX    TMP DP  RH WIND       PRES   REMARKS
NEW ORLEANS    CLOUDY    71  66  84 SE16      30.07F
GULFPORT       CLOUDY    70  66  87 SE16      30.12F
PASCAGOULA AP  MOCLDY    68  62  81 SE13      30.13F
PASCAGOULA*    NOT AVBL
HATTIESBURG    CLOUDY    67  62  84 SE13      30.11F
LAUREL         CLOUDY    66  59  77 SE15      30.12F
MERIDIAN       PTCLDY    65  61  87 S10       30.12F
JACKSON        CLOUDY    69  61  75 SE16G24   30.05S
MONTGOMERY     PTCLDY    63  52  67 SE5       30.19F
TROY           PTCLDY    58  55  90 CALM      30.21F
ASHFORD*         N/A     59  54  82 E5        30.18F
DOTHAN         CLOUDY    63  57  81 E7        30.25F
PANAMA CITY    MOCLDY    58  55  90 CALM      30.20F

$$




USA.gov is the U.S. government's official web portal to all federal, state and local government web resources and services.